This demonstration page uses our WeatherBlox Daily Observations layout. Learn more.

41.55636, -103.73856

Hourly Observations for August 5, 2019

Temp ( °F °C ) Dew Point ( °F °C ) Humidity (%) Winds ( mph kmh ) Pressure ( in mb ) Visibility ( mi km ) Precip ( " mm )
12:10 am 00:10 Mostly Cloudy with Nearby Thunderstorms 71 21.7 65 18.3 81 81 W 13 20 29.94 1014 7 11.265408 0.001 0.001
12:20 am 00:20 Cloudy with Light Thunderstorms 68 20 64 18 88 88 VRB 6 9 29.97 1015 6 9.656064 0 0
12:53 am 00:53 Cloudy with Light Thunderstorms 68 20 66 18.9 93 93 NE 18 30 29.97 1015 10 16.09344 0.07 1.778
1:02 am 01:02 Cloudy with Nearby Thunderstorms 68 20 64 18 88 88 NE 24 39 29.97 1015 10 16.09344 0 0
1:20 am 01:20 Cloudy with Light Rain 64 18 61 16 88 88 NE 21 33 30 1016 10 16.09344 0 0
1:53 am 01:53 Cloudy with Light Rain 65 18.3 61 16.1 87 87 NE 16 26 30 1016 10 16.09344 0.001 0.001
2:53 am 02:53 Partly Cloudy 64 17.8 62 16.7 93 93 ESE 12 19 29.97 1015 10 16.09344 0.02 0.508
3:53 am 03:53 Partly Cloudy 64 17.8 61 16.1 90 90 SSE 6 9 29.94 1014 10 16.09344 0 0
4:53 am 04:53 Clear 65 18.3 62 16.7 90 90 SW 5 7 29.91 1013 10 16.09344 0 0
5:53 am 05:53 Sunny 65 18.3 62 16.7 90 90 NW 8 13 29.94 1014 10 16.09344 0 0
6:53 am 06:53 Sunny 65 18.3 62 16.7 90 90 NNW 5 7 29.97 1015 10 16.09344 0 0
7:53 am 07:53 Sunny 70 21.1 64 17.8 82 82 NW 6 9 30 1016 10 16.09344 0 0
8:53 am 08:53 Sunny 74 23.3 65 18.3 74 74 Calm 29.97 1015 10 16.09344 0 0
9:53 am 09:53 Sunny 76 24.4 66 18.9 72 72 Calm 29.97 1015 10 16.09344 0 0
10:53 am 10:53 Sunny 82 27.8 65 18.3 56 56 W 13 20 29.97 1015 10 16.09344 0 0
12:53 pm 12:53 Sunny 87 30.6 61 16.1 42 42 VRB 7 11 29.94 1014 10 16.09344 0 0
1:21 pm 13:21 Sunny 90 32.2 56 13.3 32 32 NNW 13 20 29.74 1007 10 16.09344 0 0
1:53 pm 13:53 Sunny 91 32.8 55 12.8 30 30 NNW 15 24 29.94 1014 10 16.09344 0 0
2:53 pm 14:53 Sunny 92 33.3 54 12.2 28 28 N 9 15 29.91 1013 10 16.09344 0 0
3:53 pm 15:53 Sunny 92 33.3 53 11.7 27 27 NNE 8 13 29.91 1013 10 16.09344 0 0
4:53 pm 16:53 Sunny 92 33.3 55 12.8 29 29 ENE 6 9 29.88 1012 10 16.09344 0 0
5:53 pm 17:53 Sunny 90 32.2 56 13.3 32 32 NE 7 11 29.88 1012 10 16.09344 0 0
6:53 pm 18:53 Sunny 82 27.8 64 17.8 55 55 ENE 7 11 29.91 1013 10 16.09344 0 0
7:53 pm 19:53 Sunny 77 25 63 17.2 62 62 ENE 8 13 29.94 1014 10 16.09344 0 0
8:53 pm 20:53 Clear 73 22.8 63 17.2 71 71 E 7 11 29.94 1014 10 16.09344 0 0
9:53 pm 21:53 Clear 74 23.3 63 17.2 69 69 Calm 29.97 1015 10 16.09344 0 0
10:37 pm 22:37 Mostly Cloudy with Nearby Thunderstorms 76 24.4 63 17.2 64 64 SE 9 15 29.88 1012 10 16.09344 0.001 0.001
10:53 pm 22:53 Mostly Cloudy with Nearby Thunderstorms 75 23.9 64 17.8 69 69 W 3 6 30 1016 10 16.09344 0.001 0.001
11:51 pm 23:51 Mostly Cloudy with Nearby Thunderstorms 66 19 55 13 68 68 NE 20 31 30.03 1017 10 16.09344 0.001 0.001
11:53 pm 23:53 Cloudy with Nearby Thunderstorms 66 18.9 55 12.8 68 68 NE 17 28 30.03 1017 10 16.09344 0.001 0.001

Powered by AerisWeather